This is the latest recevied weather packets stored in our database for station/object N2OCK. If no packets are shown the sender has not sent any weather packets the latest 10 day(s).
| Time | Temp. | Humidity | Pressure | Rain* | Wind** | Luminosity | Snow |
|---|---|---|---|---|---|---|---|
| 1777908767 | 18.33° C | 40% | 1013.2 hPa | 0 mm | - | 698 W/m² | - |
| 1777908463 | 18.33° C | 42% | 1013.1 hPa | 0 mm | - | 691 W/m² | - |
| 1777908159 | 18.33° C | 43% | 1013 hPa | 0 mm | - | 686 W/m² | - |
| 1777907855 | 18.89° C | 43% | 1013.3 hPa | 0 mm | - | 677 W/m² | - |
| 1777907551 | 18.33° C | 42% | 1013.2 hPa | 0 mm | - | 671 W/m² | - |
| 1777907248 | 18.33° C | 39% | 1013.4 hPa | 0 mm | - | 663 W/m² | - |
| 1777906945 | 18.33° C | 41% | 1013.3 hPa | 0 mm | - | 657 W/m² | - |
| 1777906643 | 18.33° C | 42% | 1013.5 hPa | 0 mm | - | 647 W/m² | - |
| 1777906338 | 18.33° C | 41% | 1013.4 hPa | 0 mm | - | 639 W/m² | - |
| 1777906035 | 18.89° C | 41% | 1013.4 hPa | 0 mm | - | 630 W/m² | - |
| 1777905731 | 18.33° C | 41% | 1013.3 hPa | 0 mm | - | 623 W/m² | - |
| 1777905428 | 17.78° C | 44% | 1013.4 hPa | 0 mm | - | 614 W/m² | - |
| 1777905126 | 17.78° C | 43% | 1013.3 hPa | 0 mm | - | 604 W/m² | - |
| 1777904823 | 18.33° C | 44% | 1013.4 hPa | 0 mm | - | 595 W/m² | - |
| 1777904520 | 17.78° C | 43% | 1013.4 hPa | 0 mm | - | 585 W/m² | - |
| 1777904216 | 17.78° C | 45% | 1013.3 hPa | 0 mm | - | 573 W/m² | - |
| 1777903914 | 17.22° C | 46% | 1013.4 hPa | 0 mm | - | 563 W/m² | - |
| 1777903611 | 17.22° C | 44% | 1013.6 hPa | 0 mm | - | 552 W/m² | - |
| 1777903306 | 17.22° C | 45% | 1013.7 hPa | 0 mm | - | 544 W/m² | - |
| 1777903003 | 17.22° C | 47% | 1013.4 hPa | 0 mm | - | 533 W/m² | - |
| 1777902699 | 17.22° C | 46% | 1013.5 hPa | 0 mm | - | 520 W/m² | - |
| 1777902397 | 17.22° C | 45% | 1013.6 hPa | 0 mm | - | 509 W/m² | - |
| 1777902093 | 16.67° C | 46% | 1013.7 hPa | 0 mm | - | 496 W/m² | - |
| 1777901792 | 16.11° C | 48% | 1013.8 hPa | 0 mm | - | 484 W/m² | - |
| 1777901489 | 16.11° C | 48% | 1013.7 hPa | 0 mm | - | 472 W/m² | - |
* Rain latest hour (hover to see other rain measurements)
** Current wind speed in m/s (hover to see current wind gust speed)